Temp
26 26 25 31 30 32 34 35 36 36 35 36 36 35 34 34 32 30 30 30 29 27 25 24 24 23 23 22 21 20 20 19 18 18 18 18 17 17 18 17 17 17 17 17 18 18 18 18 18
26 28 29 32 30 32 34 36 35 36 36 36 35 35 34 33 34 33 31 30 29 28 26 24 24 24 23 22 21 20 19 18 18 18 18 17 17 17 17 17 17 17 17 17 18 18 18 18 18
27 30 31 32 32 33 34 35 36 36 37 35 35 35 34 31 32 32 30 29 29 28 27 26 24 24 23 22 20 19 19 18 18 18 18 18 17 17 17 17 17 17 17 17 18 18 18 18 18
29 32 32 32 33 36 35 36 36 35 36 36 35 34 33 32 32 31 30 29 29 29 28 25 24 23 23 21 20 19 19 18 18 18 18 18 18 17 17 17 17 17 17 17 17 18 17 17 17
31 33 32 33 34 34 35 36 36 35 36 36 35 34 32 31 31 30 29 29 29 29 27 25 24 23 22 21 19 19 18 18 18 17 17 17 17 16 17 17 17 17 17 17 17 17 17 17 17
31 33 31 33 35 36 36 36 36 35 36 36 35 34 32 31 30 30 29 29 28 27 26 25 23 22 22 21 21 19 19 18 17 17 16 16 16 16 16 16 16 17 17 17 17 17 17 17 16
31 32 32 33 34 35 36 36 35 35 35 35 35 33 33 31 31 30 29 28 27 26 25 24 24 23 22 21 20 19 19 18 17 17 16 15 15 15 15 16 16 16 17 16 16 17 17 16 16
32 32 32 33 33 34 36 36 36 36 35 36 35 32 32 32 30 29 29 28 27 26 26 25 24 24 23 21 20 19 18 18 17 16 15 14 14 14 15 15 15 16 16 16 16 16 16 16 16
34 31 31 33 34 35 37 36 37 37 35 35 35 34 33 31 30 29 29 29 29 28 27 26 25 23 22 21 21 19 19 18 16 16 15 15 15 15 16 17 16 16 16 16 16 16 16 16 16
32 31 32 34 35 35 35 35 35 35 35 34 34 34 32 31 30 30 30 29 29 28 27 26 24 22 20 20 21 20 19 18 17 16 15 14 14 15 16 16 16 16 16 16 16 16 16 16 16
33 32 33 34 35 35 35 35 35 35 34 35 34 34 32 31 31 30 31 31 27 26 26 25 22 21 19 19 19 19 19 18 16 16 15 15 14 14 15 16 16 16 15 15 15 16 16 16 17
32 34 34 35 35 34 34 35 34 35 35 35 35 34 33 31 30 30 30 30 27 27 25 24 22 20 19 18 18 19 19 18 17 16 16 15 15 15 15 16 16 15 15 16 16 16 17 17 18
33 34 35 35 34 34 35 34 34 34 35 36 35 34 33 32 31 30 29 29 26 25 24 23 21 20 19 18 18 18 18 17 17 16 16 15 15 15 15 16 15 16 16 16 16 16 17 18 19
34 34 34 34 34 35 34 34 34 35 35 34 34 33 33 32 31 29 29 27 26 25 24 22 21 20 19 19 18 17 17 16 16 17 17 17 16 15 15 15 15 16 16 16 16 17 17 18 19
34 32 33 34 34 34 35 33 33 35 35 34 34 34 33 33 32 30 28 26 25 24 23 22 21 20 20 19 19 18 17 17 16 16 16 16 15 15 15 15 15 16 16 16 16 17 17 18 19
32 32 32 34 34 35 34 31 34 35 35 34 34 34 33 32 32 30 28 26 24 23 23 22 21 21 20 20 19 18 18 17 16 16 16 16 16 15 15 15 15 15 15 16 16 16 17 18 18
31 30 31 33 35 35 35 32 34 35 35 34 34 34 33 33 31 29 28 25 24 23 23 22 21 20 20 19 20 19 18 17 17 16 16 16 15 15 15 16 16 16 16 16 16 17 17 18 18
29 31 32 32 34 35 34 33 34 34 34 34 33 34 33 32 30 28 27 25 24 23 22 21 21 20 20 20 20 19 18 17 17 16 16 15 15 15 15 16 16 16 16 16 16 17 18 18 18
31 32 32 34 36 33 33 33 34 35 34 34 34 34 33 32 30 28 26 25 24 23 22 21 21 21 20 20 20 20 18 18 17 16 15 15 15 15 15 16 16 16 16 17 17 17 18 18 19
31 31 32 34 35 34 34 34 34 34 34 34 34 33 33 31 29 27 25 24 23 22 22 22 21 21 20 20 20 19 19 18 18 17 16 15 15 15 15 16 16 17 17 17 17 18 17 18 18
31 31 32 32 34 34 33 32 33 34 35 35 35 34 34 30 29 26 25 24 23 23 22 22 21 21 20 20 20 20 19 18 18 17 16 16 15 15 16 16 16 17 17 17 17 17 18 17 18
30 33 33 33 32 30 33 30 32 33 34 35 34 34 33 30 29 27 25 24 23 23 23 22 21 21 20 20 20 19 18 17 17 17 16 16 16 16 16 16 17 17 17 18 18 17 17 16 17
32 34 34 33 32 31 31 30 31 33 33 34 34 34 32 31 29 27 26 24 24 24 23 22 21 21 20 20 19 19 19 17 17 17 17 16 16 16 16 16 17 18 18 18 18 18 17 18 17
34 33 33 33 32 30 31 30 31 32 33 34 34 34 32 31 29 27 26 25 24 24 23 22 22 21 21 21 20 19 18 17 17 17 17 16 16 16 16 16 17 17 17 18 18 18 18 18 18
33 32 29 28 29 28 31 31 31 34 34 34 34 33 32 31 29 27 26 25 24 24 23 22 22 21 21 21 20 20 18 17 17 17 17 16 16 16 16 16 16 16 17 17 17 18 19 18 17
33 32 30 27 28 29 33 30 32 34 34 34 34 33 31 30 28 27 26 25 25 24 23 23 22 22 22 21 20 20 18 18 17 17 16 16 16 15 16 16 16 17 17 17 18 18 18 16 16
32 31 33 30 31 30 32 32 34 34 34 34 34 32 30 29 27 27 26 26 25 24 23 23 23 22 22 21 20 20 19 18 17 17 17 16 16 16 16 16 16 16 16 18 18 18 17 16 16
33 34 30 30 28 27 30 31 32 32 33 33 32 31 29 29 28 27 26 26 25 24 23 23 23 22 22 21 21 21 20 19 18 18 17 17 16 16 16 16 16 16 17 17 17 16 16 16 16
32 32 32 31 31 29 28 31 33 33 32 30 30 31 29 28 28 27 27 26 25 24 23 23 23 23 22 21 21 21 20 20 19 18 17 17 17 17 17 17 16 17 17 17 17 16 16 16 15
33 32 32 30 29 31 31 31 33 33 33 32 31 31 29 29 29 28 27 26 26 24 24 23 23 23 22 22 21 21 21 20 19 18 17 17 17 16 17 17 17 17 17 17 18 16 16 15 15
Height
776 776 776 772 788 767 760 752 732 735 737 730 732 744 751 745 758 783 765 767 770 770 772 775 777 780 782 783 785 786 788 790 791 792 794 794 796 795 795 795 796 796 797 798 799 799 798 798 798
777 778 774 767 788 778 756 739 743 734 729 729 735 740 745 756 747 754 763 768 769 771 773 774 776 779 781 782 783 784 786 787 789 790 790 790 792 792 792 792 794 794 795 796 796 796 796 796 796
774 772 772 770 768 770 760 741 735 729 723 732 739 732 740 758 753 757 764 768 769 770 770 771 773 776 778 779 781 782 783 785 786 787 787 788 788 789 789 790 790 791 792 792 793 793 794 794 795
772 769 766 774 766 742 741 733 730 733 727 723 730 747 742 748 750 756 763 766 767 767 767 769 772 774 776 777 778 780 781 782 783 783 783 784 785 785 785 786 787 787 788 789 790 791 791 792 792
769 763 775 768 756 743 736 725 726 737 732 727 728 745 748 750 752 755 761 765 766 767 768 769 771 773 774 775 775 777 778 778 778 779 779 779 779 780 781 782 783 783 783 785 786 788 788 789 790
769 760 779 771 748 734 729 722 730 733 729 726 731 737 746 748 751 755 757 763 765 766 768 770 770 771 773 772 772 773 774 775 775 775 774 774 775 775 775 776 776 778 778 780 782 784 785 786 787
771 769 772 760 755 744 731 718 732 733 734 735 729 747 742 745 749 752 756 760 764 767 769 770 770 769 769 768 768 770 771 772 772 771 770 770 770 769 769 770 771 771 773 775 777 780 782 783 785
760 762 771 760 757 748 720 722 719 725 733 724 728 747 748 743 748 752 756 758 761 763 765 767 767 768 768 764 766 767 768 768 767 766 765 765 764 764 764 764 765 766 768 769 773 776 778 780 782
751 773 773 760 748 737 718 726 714 711 724 725 725 731 737 741 747 750 754 755 756 758 761 763 764 765 766 767 766 764 765 764 764 764 763 762 762 761 761 760 760 761 763 765 768 772 775 777 779
757 768 760 739 729 733 725 726 724 725 724 723 723 726 733 739 743 746 749 752 751 753 757 760 762 763 765 765 765 763 763 762 762 761 760 759 759 758 758 757 757 757 759 762 765 768 772 774 776
748 757 744 736 727 725 729 727 720 723 730 721 727 723 729 736 739 742 744 745 749 754 756 758 761 762 763 763 762 761 760 759 758 757 757 756 756 755 755 754 755 755 756 759 763 766 769 771 774
751 734 730 727 723 728 732 721 724 720 721 713 715 720 725 729 734 740 742 744 747 751 755 758 760 760 761 761 761 759 758 756 756 756 755 754 754 753 753 752 753 753 754 756 759 763 765 768 770
740 729 722 719 723 726 718 721 720 719 711 710 713 718 722 725 728 734 739 743 747 752 755 757 758 759 759 759 759 758 756 755 754 753 753 752 751 751 751 750 750 751 752 754 757 759 763 765 767
725 722 719 720 722 716 719 716 716 713 710 712 716 719 720 721 724 731 736 742 747 751 754 755 757 757 757 757 756 755 753 753 752 750 750 748 748 749 748 748 748 748 749 752 754 757 760 762 764
721 731 721 716 714 716 711 722 721 709 706 713 712 713 715 719 723 726 733 741 746 750 753 754 754 754 754 754 753 752 750 749 748 747 747 746 746 746 746 745 745 745 747 750 752 754 758 758 761
731 729 738 715 709 703 709 734 711 703 703 710 706 708 710 714 717 723 730 739 745 749 751 752 753 753 753 752 751 749 747 746 745 743 744 743 743 744 743 743 743 742 743 747 750 753 756 757 759
731 742 734 721 698 697 699 720 706 698 699 702 701 702 703 706 713 722 730 737 743 748 749 750 751 751 751 750 747 748 746 744 742 742 741 740 740 741 740 741 742 741 742 745 748 752 754 756 758
740 732 724 723 700 689 702 708 699 694 695 698 697 694 695 700 708 719 729 736 742 747 748 749 750 750 750 747 745 745 744 741 740 740 739 738 738 739 739 739 740 740 742 744 748 751 753 755 757
718 716 715 698 682 707 707 702 696 689 691 692 689 687 690 695 701 715 727 735 741 745 746 748 748 748 748 745 744 743 742 740 739 739 738 736 735 736 737 737 738 739 740 743 746 749 752 755 758
715 718 713 696 684 691 695 697 690 688 688 685 684 684 684 690 701 713 725 733 739 743 745 746 747 747 747 744 743 742 741 739 739 738 737 735 733 734 735 736 737 738 740 742 744 747 751 754 758
711 714 712 709 693 688 695 704 697 684 675 672 671 673 678 690 701 712 723 732 738 741 743 744 745 746 745 745 743 742 740 738 738 737 736 733 733 734 735 735 738 739 741 742 745 749 751 755 757
713 692 695 700 710 727 694 727 699 687 681 671 670 672 677 686 696 708 719 729 735 739 741 742 744 745 745 745 743 742 741 739 737 736 736 733 734 734 735 736 738 739 741 743 748 751 753 758 760
693 679 685 692 707 711 714 725 705 683 684 672 670 668 672 680 691 704 715 725 732 736 739 741 743 745 745 745 744 743 742 740 737 736 736 735 733 734 736 737 739 740 743 745 749 752 756 760 760
670 681 685 692 703 727 711 717 710 692 680 674 668 664 670 680 691 703 715 724 730 734 738 740 742 744 745 745 745 744 743 740 738 737 737 737 735 735 736 738 740 742 743 745 748 752 754 755 759
671 688 722 735 733 733 699 707 695 671 667 667 670 669 673 681 693 704 714 721 728 733 736 740 741 744 745 745 746 745 744 741 740 739 739 738 737 736 738 739 740 742 744 745 748 750 754 757 759
669 686 709 741 736 720 678 706 686 661 658 661 664 668 676 685 694 704 713 720 726 731 735 738 740 743 745 745 746 746 746 743 743 742 741 739 739 738 739 740 741 742 745 747 748 751 753 757 761
667 686 675 702 692 707 691 679 663 655 662 663 665 671 681 688 696 704 711 718 723 729 734 736 739 741 744 745 747 747 747 746 745 744 742 741 740 740 741 741 741 744 746 750 753 756 759 762 764
651 655 697 696 729 734 703 691 682 673 669 664 670 677 684 689 697 704 711 716 722 728 733 736 738 741 743 745 746 747 747 747 747 745 744 743 742 743 743 743 743 746 748 751 755 760 763 765 769
658 664 668 680 690 714 721 695 651 661 663 674 675 674 684 690 697 703 709 716 721 726 731 736 738 740 743 745 746 747 748 748 748 747 746 745 744 746 746 747 748 749 752 755 757 761 766 770 774
639 655 659 688 700 687 688 691 649 653 657 662 670 675 683 687 694 699 706 714 719 725 729 734 737 739 742 744 746 748 749 750 750 750 749 748 748 749 750 751 752 753 756 759 763 765 769 772 778
Wind_Speed
12 12 11 15 6 8 16 11 7 8 13 12 8 6 11 9 11 4 7 8 4 13 12 11 10 13 12 12 12 10 11 10 11 11 12 12 13 13 13 13 11 10 9 10 11 12 12 13 13
11 10 16 7 10 14 3 10 7 11 10 10 5 5 5 10 12 9 13 6 5 7 5 8 9 8 8 12 13 12 12 11 12 12 12 13 15 15 15 14 13 12 11 12 12 13 13 13 14
10 13 8 8 14 14 7 3 10 11 9 3 8 3 2 6 9 6 11 4 3 3 11 11 9 8 9 12 14 14 12 12 13 13 14 14 17 17 16 16 17 16 14 13 13 13 14 14 15
9 10 7 10 16 12 8 7 8 10 12 5 4 4 8 8 10 9 6 5 4 5 6 8 8 8 10 13 14 14 14 14 15 15 15 16 17 18 18 18 18 18 18 16 14 14 13 14 15
16 7 12 18 18 7 18 10 6 8 9 11 8 2 7 10 12 11 7 4 3 4 4 5 1 5 7 10 10 11 13 13 14 14 15 15 16 16 16 17 18 20 19 19 17 16 13 12 12
8 10 12 15 16 5 9 5 5 10 11 6 4 1 7 16 11 9 8 6 3 1 1 1 2 5 7 9 10 12 15 17 17 15 14 14 17 19 19 20 20 21 21 22 19 17 15 14 12
13 12 17 19 19 19 16 4 5 10 8 7 10 5 5 15 11 9 9 7 3 2 4 5 4 8 12 9 9 10 11 13 16 17 18 17 17 19 21 20 20 20 22 22 20 18 17 15 12
12 12 21 18 18 17 6 8 9 11 5 5 2 3 4 10 13 9 9 11 8 11 8 2 7 6 5 7 6 9 8 15 13 16 14 12 14 17 19 20 21 21 21 21 21 19 18 15 13
17 13 16 21 21 14 14 14 10 8 7 12 5 5 6 10 11 10 11 10 8 5 6 7 2 4 7 9 10 6 12 12 8 10 10 11 12 12 14 16 18 17 20 20 21 18 16 14 13
17 14 23 22 20 14 17 14 17 16 12 11 12 11 12 13 14 13 12 11 15 8 1 4 2 4 6 8 9 9 12 8 10 14 13 12 11 14 15 13 11 12 16 19 19 16 15 14 13
21 21 22 24 20 16 19 18 17 15 10 8 7 0 15 13 13 12 14 13 9 5 1 3 5 4 5 9 10 12 12 7 8 13 12 12 11 13 14 14 12 12 16 18 18 17 17 16 16
24 26 24 25 18 19 19 22 18 11 10 9 0 1 13 15 10 11 12 4 7 5 1 1 3 3 6 8 11 12 9 8 16 13 13 10 12 13 13 10 12 15 15 21 19 20 18 17 21
27 26 25 19 14 22 24 22 18 12 10 6 4 7 7 6 11 12 6 2 5 1 1 2 2 4 5 8 10 11 14 15 13 14 15 11 12 13 9 10 11 13 16 18 21 22 22 20 21
24 25 23 18 25 23 22 18 15 20 10 4 7 8 11 11 9 11 11 6 7 3 3 2 3 3 5 8 13 13 13 13 15 14 15 10 12 12 11 10 12 13 15 19 19 18 18 18 21
24 26 23 23 18 22 20 19 16 19 12 16 12 13 11 7 11 13 16 11 7 5 5 4 6 6 6 11 10 11 13 14 16 15 10 11 10 13 12 10 11 13 16 17 20 19 13 12 18
24 26 22 23 22 25 22 19 16 16 15 16 14 11 13 13 11 13 15 15 9 6 5 4 4 5 6 9 11 15 11 11 12 14 12 14 13 10 12 9 9 9 15 20 21 20 14 14 18
21 18 25 24 23 24 21 18 16 17 16 14 11 11 10 9 10 13 13 14 10 8 5 4 2 6 6 11 14 14 9 7 10 12 12 12 11 10 12 10 7 6 12 20 21 19 17 17 19
20 23 22 23 23 22 14 17 15 18 19 8 18 14 11 9 13 16 15 14 12 9 6 4 3 4 6 12 14 7 7 6 8 7 10 10 10 9 10 12 9 9 10 16 18 17 19 20 21
25 23 24 23 17 8 16 22 16 12 14 18 15 9 7 10 14 20 17 15 12 10 7 7 4 3 6 10 9 7 7 7 2 5 7 8 12 10 10 11 10 12 11 14 16 18 20 18 19
27 26 23 20 19 15 15 14 13 14 17 19 17 13 9 13 16 15 18 15 14 11 10 7 5 2 4 8 7 3 4 5 4 6 6 4 3 8 9 9 12 13 11 11 14 17 12 13 17
26 25 21 23 17 16 15 14 13 21 19 15 12 5 4 14 14 14 14 16 14 12 10 9 4 2 2 6 7 6 8 8 6 5 7 4 2 6 9 9 11 12 11 11 11 10 8 10 11
25 25 25 18 15 13 14 13 13 15 17 12 5 8 9 15 15 15 14 16 15 13 12 8 5 3 3 5 9 10 10 11 6 3 8 4 3 5 7 10 12 13 12 11 12 13 9 16 13
23 23 20 14 15 15 15 12 14 15 18 7 1 6 13 16 16 16 15 18 16 14 13 10 7 4 1 2 7 9 10 11 11 3 6 8 4 4 10 10 11 10 6 12 12 13 21 21 20
25 22 14 12 12 12 15 15 14 16 4 4 3 1 13 15 15 15 17 19 15 13 14 10 8 4 3 1 5 8 9 12 9 4 7 10 6 4 9 11 11 8 7 10 12 11 16 19 17
23 14 11 11 11 12 18 18 15 8 9 2 3 10 13 14 14 14 14 13 15 14 14 10 8 7 4 3 3 7 9 11 10 8 10 8 10 9 12 10 10 8 8 10 11 13 19 22 24
23 17 13 15 11 16 20 17 5 5 5 2 2 7 13 13 13 14 14 14 16 14 14 12 10 8 5 4 3 5 7 10 8 8 10 8 8 10 12 9 10 9 11 13 13 16 19 22 22
21 22 18 18 17 12 11 11 10 11 8 9 9 10 12 11 13 14 14 15 16 15 14 10 8 9 5 4 3 3 5 8 8 10 11 13 10 14 12 12 13 13 15 17 22 21 23 23 23
23 19 16 12 16 15 12 15 5 11 6 10 10 7 12 12 13 13 13 14 14 16 14 10 8 7 6 4 4 4 7 7 7 6 8 10 13 14 16 16 18 19 19 23 24 22 22 24 23
18 20 18 14 14 12 10 10 9 10 12 11 8 11 11 13 14 13 12 15 14 16 16 12 10 9 8 5 5 4 8 6 9 10 12 11 14 13 14 18 18 19 18 24 23 22 24 24 24
23 23 18 11 16 11 11 5 10 9 9 11 12 13 13 15 13 13 13 16 15 15 16 14 12 11 9 8 8 5 8 8 10 13 14 12 13 15 15 16 17 19 21 22 21 22 22 25 23
Wind_Direction
183 180 216 235 255 232 257 11 250 333 60 53 13 351 338 320 34 51 113 113 87 115 151 166 193 210 219 229 237 243 250 256 250 250 245 248 257 270 282 290 292 286 280 266 262 262 271 269 272
182 210 239 267 246 280 260 284 348 8 26 27 315 250 276 73 57 113 134 120 111 132 145 189 190 206 238 244 246 251 255 259 261 261 260 252 252 255 265 275 277 278 272 267 260 258 260 263 268
216 228 270 241 249 266 338 300 349 357 333 133 296 160 43 92 75 78 105 121 171 194 212 202 207 229 253 247 251 259 260 258 256 260 261 261 263 263 264 268 269 269 266 261 254 252 253 259 261
213 218 243 251 262 271 264 345 340 360 319 164 198 0 111 100 125 105 128 185 221 254 125 172 197 231 254 253 253 256 260 263 265 265 266 265 265 267 269 265 267 264 258 254 244 243 252 256 258
247 270 258 260 270 356 292 320 12 321 310 327 105 290 99 122 121 132 145 200 237 278 39 130 258 264 262 264 257 258 261 261 261 265 264 265 266 269 268 265 261 259 256 245 238 241 246 256 260
225 223 266 273 307 230 267 358 356 312 296 324 233 152 97 142 142 145 149 186 220 4 245 45 315 284 285 286 274 263 264 268 270 269 270 272 271 272 271 266 261 258 252 240 232 232 241 253 265
252 267 268 282 303 298 311 44 284 290 326 348 12 10 132 160 147 152 158 164 179 194 209 222 228 286 277 263 254 255 268 285 287 285 285 279 275 275 272 267 261 257 246 236 227 228 236 247 260
238 262 274 276 273 285 346 269 242 293 248 359 92 316 16 110 134 158 179 181 185 201 216 184 268 272 300 266 252 265 297 302 296 312 301 292 282 272 270 260 256 252 242 229 224 223 234 237 245
242 254 260 270 286 308 311 315 326 294 197 262 194 180 111 132 161 183 199 220 219 190 238 240 267 310 300 289 276 279 305 290 300 305 304 294 296 284 280 272 256 247 232 222 222 221 226 228 233
235 246 257 270 287 313 316 309 297 304 245 226 190 182 154 164 184 213 205 215 225 208 208 329 297 278 301 289 284 285 292 264 274 290 293 300 281 274 274 274 266 242 225 220 213 213 220 226 226
237 247 256 272 294 306 299 298 284 281 296 276 16 3 160 186 206 214 235 232 70 54 33 3 326 280 286 290 295 283 275 269 299 302 280 279 286 282 272 262 248 243 216 209 207 209 216 221 216
249 250 252 258 279 301 277 278 274 288 288 280 79 272 169 189 204 204 233 210 154 160 26 318 309 299 288 285 291 296 286 303 302 279 278 272 278 274 273 263 258 233 219 209 204 209 216 214 215
253 257 259 273 288 265 264 260 281 275 284 298 288 225 224 219 190 206 180 170 87 161 113 301 293 283 279 278 287 288 289 288 273 276 265 246 266 273 275 271 259 236 219 213 210 208 213 217 216
254 259 267 266 255 263 269 265 261 265 252 233 262 259 241 222 192 154 176 161 178 192 229 239 273 274 277 280 281 281 284 276 274 277 269 242 264 266 262 269 263 248 228 210 207 208 209 220 208
263 265 269 259 258 258 271 263 248 275 229 264 244 234 234 267 216 198 157 180 196 200 211 237 254 240 268 277 290 290 288 280 272 270 266 245 256 264 261 263 269 238 229 207 210 213 209 207 193
256 260 258 260 254 252 236 251 262 250 245 260 243 246 239 219 216 169 155 168 184 219 198 228 274 295 282 298 297 300 290 280 278 275 270 252 252 258 260 255 259 249 208 196 207 211 206 196 197
246 251 253 258 249 253 239 236 237 260 282 246 234 244 253 217 153 146 164 161 180 202 213 223 257 274 306 299 288 303 296 291 283 276 274 267 257 264 252 251 229 213 188 189 198 196 193 190 195
235 240 238 252 260 264 218 243 242 235 247 252 270 244 236 216 157 155 167 172 183 197 196 213 253 284 306 305 312 276 303 309 295 275 281 274 265 260 250 246 216 205 184 187 192 204 190 186 187
243 248 245 251 255 220 236 238 241 258 275 286 285 272 238 182 148 152 165 178 176 193 194 213 223 274 299 305 340 330 335 338 304 331 296 286 266 236 244 239 206 194 193 190 189 183 183 188 188
242 251 260 273 284 291 289 269 281 288 270 265 263 264 256 149 139 150 162 174 177 192 206 196 219 240 297 313 331 322 320 305 310 336 354 312 276 206 226 212 183 178 184 185 184 177 181 192 177
233 242 253 261 275 276 282 272 265 263 269 264 253 223 250 140 151 155 162 176 180 197 189 198 174 214 298 310 316 332 339 322 306 339 352 19 196 187 195 191 174 172 169 179 176 160 184 153 151
232 232 239 252 273 273 287 294 286 298 276 258 247 206 170 150 157 156 164 173 182 193 187 162 170 215 190 348 356 348 352 340 317 7 13 59 109 173 182 185 169 175 179 170 153 138 129 138 159
233 238 242 237 247 257 268 270 278 289 280 243 150 231 178 152 159 160 166 172 183 187 168 168 173 179 152 36 10 9 5 353 356 16 40 86 114 119 182 175 180 183 181 176 157 159 166 158 177
233 237 246 254 262 255 252 257 270 266 16 63 341 258 126 144 151 153 162 167 180 170 164 168 184 174 213 77 20 3 350 355 11 61 70 66 57 107 161 173 188 181 188 183 159 157 150 148 139
222 219 224 225 237 253 251 246 244 287 302 348 317 134 137 138 146 153 163 163 174 173 161 174 179 179 222 97 37 20 42 45 53 75 58 56 44 90 142 159 180 176 180 175 160 155 151 147 132
203 207 226 222 226 245 244 233 253 106 97 91 74 74 121 141 147 158 166 167 170 168 163 206 171 156 207 98 80 53 61 64 78 83 59 43 52 88 127 131 148 174 172 162 158 145 131 127 124
199 213 215 253 267 288 269 235 204 173 170 198 191 133 128 143 150 159 162 172 168 163 167 199 179 164 173 121 119 76 84 86 90 93 76 59 63 104 104 121 130 138 148 146 142 136 124 113 119
223 194 208 229 244 265 281 278 250 137 193 132 118 133 133 145 156 161 165 171 166 160 166 184 173 166 163 154 164 111 105 99 93 95 83 66 87 111 100 112 119 131 139 139 127 125 126 117 125
205 229 200 226 222 231 248 266 134 149 113 118 144 134 147 154 165 163 166 164 173 161 165 183 190 167 151 164 117 133 107 97 88 97 100 73 99 102 97 105 112 127 129 138 130 134 137 129 129
208 216 205 212 219 256 260 283 91 103 128 123 122 140 156 161 169 167 166 165 177 168 167 175 199 164 172 167 137 146 117 101 97 98 102 79 92 101 97 107 109 129 134 144 143 141 150 141 142